Regional Weather Roundup
Issued by NWS Sterling, VA

Home | Current Version | Previous Version | Graphics & Text | Print | Product List | Glossary On
Versions: 1 2 3 4 5 6 7 8 9 10 11 12 13 14 15 16 17 18 19 20 21 22 23 24 25 26 27
000
ASUS41 KLWX 190610
RWRLWX

REGIONAL WEATHER ROUNDUP
NATIONAL WEATHER SERVICE BALTIMORE MD/WASHINGTON DC
200 AM EDT SAT APR 19 2014

Note: "FAIR" indicates few or no clouds below 12,000 feet
with no significant weather and/or obstructions to visibility.
 TC=TEMPERATURE CELSIUS

 * =Non NWS site. Station does not report precipitation (e.g. rain,
    snow, etc.), thunder, or fog.

DCZ001-MDZ009-015-VAZ040>042-051-053>054-190700-
WASHINGTON METRO

CITY           SKY/WX    TMP DP  RH WIND       PRES   REMARKS
WASHINGTON NAT CLOUDY    49  37  63 S6        30.28F
DULLES         CLOUDY    43  36  76 CALM      30.26F
ANDREWS AFB    FAIR      44  37  75 S3        30.26F
FT BELVOIR     FAIR      42  38  86 CALM      30.27F
QUANTICO       FAIR      47  40  76 NW6       30.28F
COLLEGE PARK*  FAIR      43  37  81 CALM      30.27F
LEESBURG*      FAIR      46  37  71 S3        30.27F
MANASSAS*      FAIR      43  43 100 CALM      30.27F
GAITHERSBURG*  FAIR      43  36  75 CALM      30.28F

$$

MDZ006>007-011-014-190700-
BALTIMORE METRO

CITY           SKY/WX    TMP DP  RH WIND       PRES   REMARKS
BWI AIRPORT    CLOUDY    42  35  76 CALM      30.26F
MD SCIENCE CTR   N/A     48  36  63 MISG      30.27F
MARTIN STATE   FAIR      43  37  81 CALM      30.28F
ANNAPOLIS      FAIR      46  40  79 CALM      30.27F
FORT MEADE*    FAIR      37  36  93 CALM      30.29F

$$

MDZ012-015-019>023-190700-
MARYLAND EASTERN SHORE

CITY           SKY/WX    TMP DP  RH WIND       PRES   REMARKS
OCEAN CITY     FAIR      43  39  86 CALM      30.28F
SALISBURY      FAIR      45  40  82 CALM      30.27F
BAY BRIDGE AP* FAIR      46  41  81 CALM      30.28F
CAMBRIDGE*     MOCLDY    45  39  81 CALM      30.27F
EASTON*        FAIR      46  43  87 CALM      30.31F

$$

MDZ017>025-190700-
SOUTHERN MARYLAND

CITY           SKY/WX    TMP DP  RH WIND       PRES   REMARKS
PATUXENT RIVER FAIR      45  41  86 CALM      30.27F
ST INIGOES     FAIR      47  42  83 CALM      30.26F
LEONARDTOWN*   FAIR      45  37  76 CALM      30.27F

$$

MDZ003>005-190700-
NORTH CENTRAL MARYLAND

CITY           SKY/WX    TMP DP  RH WIND       PRES   REMARKS
FREDERICK*     FAIR      41  41 100 CALM      30.29F
HAGERSTOWN APT FAIR      46  34  62 S3        30.24F
WESTMINSTER*   FAIR      45  39  81 S3        30.25F

$$

MDZ501>502-190700-
WESTERN MARYLAND

CITY           SKY/WX    TMP DP  RH WIND       PRES   REMARKS
OAKLAND*       FAIR      50  21  32 CALM      30.23F
CUMBERLAND*    FAIR      45  36  70 CALM      30.28S

$$

VAZ025>031-190700-
SHENANDOAH VALLEY

CITY           SKY/WX    TMP DP  RH WIND       PRES   REMARKS
WINCHESTER*    FAIR      41  37  87 CALM      30.23F
STAUNTON*      FAIR      44  38  79 CALM      30.25S

$$

WVZ021-048>050-054>055-190700-
EASTERN WEST VIRGINIA PANHANDLE

CITY           SKY/WX    TMP DP  RH WIND       PRES   REMARKS
MARTINSBURG    FAIR      45  35  68 NW3       30.24F
PETERSBURG*    FAIR      48  44  86 CALM      30.25S

$$

VAZ036>039-050-190700-
CENTRAL FOOTHILLS

CITY           SKY/WX    TMP DP  RH WIND       PRES   REMARKS
CHARLOTTESVILL FAIR      47  37  68 CALM      30.25S
CULPEPER*      FAIR      45  39  81 CALM      30.27F

$$

VAZ055>057-190700-
NORTH AND CENTRAL PIEDMONT

CITY           SKY/WX    TMP DP  RH WIND       PRES   REMARKS
FREDERICKSBRG* FAIR      46  41  81 CALM      30.26F
STAFFORD*      FAIR      42  42 100 CALM      30.31F

$$

NCZ024-NYZ072-PAZ021-071-VAZ022-071-190700-
OTHER REGIONAL OBSERVATIONS

CITY           SKY/WX    TMP DP  RH WIND       PRES   REMARKS
NEW YORK CITY  FAIR      42  32  67 CALM      30.28F
PHILADELPHIA   CLOUDY    44  37  76 S8        30.28S
PITTSBURGH     MOCLDY    51  39  63 N8        30.24S
ROANOKE        CLOUDY    46  39  76 CALM      30.24F
RICHMOND       CLOUDY    47  41  80 SE5       30.25F
RALEIGH        LGT RAIN  48  45  87 NE9       30.19F

$$

ANZ530>537-190700-
MARINE OBSERVATIONS

STATION/POSITION TIME  TEMP    WIND        PRES
                       AIR SEA DIR/SP/G
                 (UTC) (F)     (DEG/KT/KT) (MB)
THOMAS PT LIGHT  0600   49 52  210/  5/  6 1025.5F
BALT KEY BRIDGE  0600   48     200/  4/  5 1025.3F
COVE POINT       0600   47     210/  5/  6 1025.2F
LEWISETTA        0600   46 53  160/  3/  4 1024.6F
SOLOMONS ISLAND  0600      52                N/A
PINEY POINT      0600          200/  5/  5   N/A

$$




USA.gov is the U.S. government's official web portal to all federal, state and local government web resources and services.